TimeMDT,TemperatureF,Dew PointF,Humidity,Sea Level PressureIn,VisibilityMPH,Wind Direction,Wind SpeedMPH,Gust SpeedMPH,PrecipitationIn,Events,Conditions,WindDirDegrees,DateUTC
12:53 AM,55.0,33.1,43,29.82,10.0,SSE,5.8,-,N/A,,Clear,160,2013-07-23 06:53:00
1:53 AM,52.0,24.1,34,29.83,10.0,SE,8.1,-,N/A,,Clear,140,2013-07-23 07:53:00
2:53 AM,52.0,24.1,34,29.82,10.0,South,8.1,-,N/A,,Clear,170,2013-07-23 08:53:00
3:53 AM,54.0,19.9,26,29.82,10.0,SSE,6.9,-,N/A,,Clear,160,2013-07-23 09:53:00
4:53 AM,52.0,21.9,31,29.85,6.0,South,11.5,-,N/A,,Haze,170,2013-07-23 10:53:00
5:53 AM,48.0,24.1,39,29.88,10.0,ESE,6.9,-,N/A,,Clear,120,2013-07-23 11:53:00
6:53 AM,54.0,25.0,33,29.88,10.0,South,3.5,-,N/A,,Clear,190,2013-07-23 12:53:00
7:53 AM,57.9,28.0,32,29.90,10.0,SSE,5.8,-,N/A,,Clear,150,2013-07-23 13:53:00
8:53 AM,66.0,28.0,24,29.92,10.0,South,6.9,-,N/A,,Clear,170,2013-07-23 14:53:00
9:53 AM,73.9,30.9,21,29.91,10.0,Variable,4.6,-,N/A,,Clear,0,2013-07-23 15:53:00
10:53 AM,78.1,33.1,19,29.89,10.0,Variable,4.6,-,N/A,,Clear,0,2013-07-23 16:53:00
11:53 AM,81.0,30.0,16,29.90,10.0,Variable,3.5,-,N/A,,Clear,0,2013-07-23 17:53:00
12:53 PM,82.9,28.0,14,29.89,10.0,North,9.2,-,N/A,,Clear,360,2013-07-23 18:53:00
1:53 PM,86.0,23.0,10,29.88,10.0,NNW,8.1,17.3,N/A,,Clear,330,2013-07-23 19:53:00
2:53 PM,84.9,21.0,10,29.88,10.0,North,5.8,18.4,N/A,,Clear,360,2013-07-23 20:53:00
3:53 PM,86.0,12.0,6,29.86,10.0,NNE,12.7,25.3,N/A,,Clear,20,2013-07-23 21:53:00
4:53 PM,87.1,12.9,6,29.86,10.0,North,15.0,21.9,N/A,,Clear,350,2013-07-23 22:53:00
5:21 PM,82.4,48.2,30,30.22,10.0,East,16.1,-,N/A,,Clear,90,2013-07-23 23:21:00
5:53 PM,80.1,50.0,35,29.91,10.0,East,17.3,24.2,N/A,,Clear,90,2013-07-23 23:53:00
6:53 PM,78.1,51.1,39,29.91,10.0,East,13.8,-,N/A,,Clear,80,2013-07-24 00:53:00
7:53 PM,73.9,53.1,48,29.94,10.0,ESE,15.0,-,N/A,,Clear,120,2013-07-24 01:53:00
8:53 PM,69.1,53.1,57,29.94,10.0,ESE,9.2,-,N/A,,Clear,120,2013-07-24 02:53:00
9:53 PM,66.9,51.1,57,29.94,10.0,SE,9.2,-,N/A,,Clear,130,2013-07-24 03:53:00
10:53 PM,63.0,52.0,67,29.95,10.0,SE,8.1,-,N/A,,Clear,140,2013-07-24 04:53:00
11:53 PM,63.0,53.1,70,29.94,10.0,SSE,6.9,-,N/A,,Clear,150,2013-07-24 05:53:00